sat.trackr.live / text

‹ back to catalog

STARLINK-5676

NORAD 55464 · 2023-015R

PAYLOAD ACTIVE UNKNOWN

§ Identity

Operator
Country
US
Launch date
2023-02-02
Launch site
AFETR
Launch vehicle
Mass (kg)
RCS (m²)

Purposes: comms

External: N2YO · Heavens-Above · Gunter

§ Orbital elements

Epoch: 2026-05-24T17:49:10.774848Z

Period
94.27 min
Inclination
43.0020°
Eccentricity
0.0001285
Mean motion
15.27571009 rev/d
Perigee alt
482.2 km
Apogee alt
484.0 km
Semi-major
6,861.2 km
B*
-1.4159e-5
RAAN
259.1852°
Arg perigee
269.7449°
Mean anomaly
90.3255°
Rev number
18,235

§ Raw data

STARLINK-56761 55464U 23015R   26144.74248582 -.00000652  00000+0 -14159-4 0  99902 55464  43.0020 259.1852 0001285 269.7449  90.3255 15.27571009182354

JSON: /api/v1/satellites/55464 · /tle

For live sub-satellite position, see the globe view (requires WebGL).

§ Visibility from observer

Set your observer location to see the next 7 days of passes ≥ 10°. The values pass through the URL so the page stays shareable.

No JS? Fill the form by hand. The geolocation button needs JavaScript.